Dallas, TX

2:16 AM CST on February 10, 2016 (GMT -0600)
Dallas Love

Weather History for KDAL - November, 2012

Change the Weather History Date:

Saturday, November 24, 2012

  Actual Average Record
Temperature  
Mean Temperature 48 °F -  
Max Temperature 60 °F 62 °F - (-1)
Min Temperature 37 °F 43 °F - (-1)
Degree Days  
Heating Degree Days 16    
Moisture  
Dew Point 21 °F    
Average Humidity 35    
Maximum Humidity 59    
Minimum Humidity 20    
Precipitation  
Precipitation 0.00 in - - ()
Sea Level Pressure  
Sea Level Pressure 30.29 in    
Wind  
Wind Speed 5 mph (SSE)    
Max Wind Speed 13 mph    
Max Gust Speed -    
Visibility 10 miles    
Events      
Averages and records for this station are not official NWS values.
T = Trace of Precipitation, MM = Missing Value Source: NWS Daily Summary

Daily Weather History Graph

Daily Weather History Graph

Search for Another Location

Airport or City:

Trip Planner

Search our weather history database for the weather conditions in past years. The results will help you decide how hot, cold, wet, or windy it might be!

Date:

Astronomy

Nov. 24, 2012 Rise Set
Actual Time 7:06 AM CST 5:22 PM CST
Civil Twilight 6:39 AM CST 5:48 PM CST
Nautical Twilight 6:09 AM CST 6:18 PM CST
Astronomical Twilight 5:39 AM CST 6:48 PM CST
Moon 2:59 PM CST (11/24) 3:33 AM CST (11/24)
Length of Visible Light 11h 09m
Length of Day
10h 15m
Waxing Gibbous, 87% of the Moon is Illuminated
Nov 24
Waxing Gibbous
Nov 28
Full
Dec 6
Last Quarter
Dec 13
New
Dec 19
First Quarter

Hourly Weather History & Observations

Time (CST) Temp. Windchill Dew Point Humidity Pressure Visibility Wind Dir Wind Speed Gust Speed Precip Events Conditions
12:53 AM 46.0 °F 43.1 °F 21.0 °F 37% 30.43 in 10.0 mi North 5.8 mph - N/A   Clear
1:53 AM 45.0 °F 43.5 °F 19.9 °F 37% 30.43 in 10.0 mi NNE 3.5 mph - N/A   Clear
2:53 AM 39.9 °F 36.7 °F 21.9 °F 49% 30.43 in 10.0 mi NNW 4.6 mph - N/A   Clear
3:53 AM 39.9 °F 37.8 °F 23.0 °F 51% 30.43 in 10.0 mi NNW 3.5 mph - N/A   Clear
4:53 AM 39.9 °F 37.8 °F 24.1 °F 53% 30.41 in 10.0 mi North 3.5 mph - N/A   Clear
5:53 AM 37.0 °F 34.5 °F 24.1 °F 59% 30.41 in 10.0 mi North 3.5 mph - N/A   Clear
6:53 AM 37.9 °F - 23.0 °F 55% 30.40 in 10.0 mi Calm Calm - N/A   Partly Cloudy
7:53 AM 41.0 °F - 25.0 °F 53% 30.42 in 10.0 mi Calm Calm - N/A   Clear
8:53 AM 43.0 °F - 21.9 °F 43% 30.42 in 10.0 mi Calm Calm - N/A   Partly Cloudy
9:53 AM 48.0 °F - 21.0 °F 34% 30.42 in 10.0 mi South 3.5 mph - N/A   Partly Cloudy
10:53 AM 50.0 °F - 19.9 °F 31% 30.39 in 10.0 mi SSW 3.5 mph - N/A   Partly Cloudy
11:53 AM 55.0 °F - 19.9 °F 25% 30.34 in 10.0 mi Calm Calm - N/A   Partly Cloudy
12:53 PM 55.9 °F - 19.9 °F 25% 30.30 in 10.0 mi SW 4.6 mph - N/A   Partly Cloudy
1:53 PM 57.9 °F - 19.9 °F 23% 30.26 in 10.0 mi Variable 3.5 mph - N/A   Scattered Clouds
2:53 PM 60.1 °F - 21.0 °F 22% 30.22 in 10.0 mi Variable 5.8 mph - N/A   Scattered Clouds
3:53 PM 60.1 °F - 19.0 °F 20% 30.19 in 10.0 mi SSE 8.1 mph - N/A   Partly Cloudy
4:53 PM 57.9 °F - 19.9 °F 23% 30.18 in 10.0 mi SE 10.4 mph - N/A   Partly Cloudy
5:53 PM 57.0 °F - 19.9 °F 24% 30.17 in 10.0 mi SSE 9.2 mph - N/A   Partly Cloudy
6:53 PM 55.0 °F - 19.9 °F 25% 30.16 in 10.0 mi SSE 10.4 mph - N/A   Clear
7:53 PM 54.0 °F - 21.0 °F 28% 30.15 in 10.0 mi SSE 10.4 mph - N/A   Clear
8:53 PM 52.0 °F - 21.9 °F 31% 30.14 in 10.0 mi SSE 8.1 mph - N/A   Clear
9:53 PM 50.0 °F - 21.9 °F 33% 30.13 in 10.0 mi South 9.2 mph - N/A   Clear
10:53 PM 50.0 °F - 21.9 °F 33% 30.12 in 10.0 mi SSE 11.5 mph - N/A   Clear
11:53 PM 50.0 °F - 21.9 °F 33% 30.11 in 10.0 mi SSE 12.7 mph - N/A   Clear